Regional Weather Roundup
Issued by NWS

Home | Current Version | Previous Version | Text Only | Print | Product List | Glossary On
Versions: 1 2 3 4 5 6 7 8 9 10 11 12 13 14 15 16 17 18 19 20 21 22 23 24 25 26 27
000
ASUS42 KKEY 071010
RWRKEY

FLORIDA REGIONAL WEATHER ROUNDUP FOR THE FLORIDA KEYS
NATIONAL WEATHER SERVICE KEY WEST FLORIDA
500 AM EST WED DEC 07 2016

...SOUTH FLORIDA AND THE KEYS...

CITY           SKY/WX    TMP DP  RH WIND       PRES   REMARKS
FORT MYERS     CLEAR     71  70  96 N3        29.99R
SW REGIONAL AP PTCLDY    71  69  93 CALM      30.00R FOG
NAPLES         FOG      N/A N/A N/A CALM      29.99R VSB 1/2
MIAMI          MOCLDY    76  73  91 W3        30.00R
WEST KENDALL   MOCLDY    74  73  97 W3        30.00R
HOMESTEAD      CLOUDY    73  73 100 CALM      29.99R
MARATHON       CLOUDY    79  76  90 SW7       29.99R
BOCA CHICA NAS PTCLDY    75  74  96 N5        29.99R
KEY WEST INTL  MOCLDY    77  76  96 N5        30.00R

...INTERNATIONAL WEATHER...

CITY           SKY/WX    TMP DP  RH WIND       PRES   REMARKS
NASSAU BAHAMAS PTCLDY    75  73  94 CALM      30.01R
CANCUN MEXICO  PTCLDY    75  75 100 SE3       29.95F
COZUMEL MEXICO PTCLDY    75  73  94 CALM      29.93F

ADJACENT COASTAL WATERS...

STATION/POSITION TIME  SKY/WX   TEMP    WIND        PRES    WAVE
                                AIR SEA DIR/SP/G            HT/PER
                 (UTC)          (F)     (DEG/KT/KT) (MB)    (FT/S)
PULASKI SHOAL LI 1000            76     350/  3/  3 1015.6R
SAND KEY         0950            77     270/  4/  7 1016.0R
LONG KEY         1000            78 79  230/  5/  5 1015.7R
MOLASSES REEF    1000            76 79  350/  6/  7 1015.8R
FOWEY ROCKS      1000            77 78  270/  5/  5 1016.4R

$$




USA.gov is the U.S. government's official web portal to all federal, state and local government web resources and services.